COSMOS 2569 (703K)

Last updated on Sat Aug 15 2026 00:02:49 GMT+0000 (Coordinated Universal Time)

1 57517U 23114A 26225.97214993 .00000000 00000+0 00000+0 0 9995 2 57517 65.3370 70.6728 0008859 293.0169 66.9653 2.13103839 23494
UTC large
Height (km)
Speed (km/s)
/
Latitude / Longitude
Inclination (degrees)
Orbital Period (minutes)
Azimuth
Elevation
Range (km)
Doppler Factor

Next 0 passes for location: London (51.5072 / 0.1276)

No passes found over London.
COSMOS 2569 (703K)